Weather History for West Palm Beach, FL

Change the Weather History Date:

Sunday, November 14, 2010

  Actual Average Record
Temperature  
Mean Temperature 71 °F 73 °F  
Max Temperature 80 °F 80 °F 87 °F (1948)
Min Temperature 62 °F 66 °F 37 °F (1906)
Degree Days  
Heating Degree Days 0 0  
Month to date heating degree days 9 0  
Since 1 July heating degree days 9 1  
Cooling Degree Days 6 8  
Month to date cooling degree days 96 129  
Year to date cooling degree days 3864 3750  
Growing Degree Days 21 (Base 50)    
Moisture  
Dew Point 59 °F    
Average Humidity 66    
Maximum Humidity 90    
Minimum Humidity 42    
Precipitation  
Precipitation 0.00 in 0.19 in 3.07 in (1926)
Month to date precipitation 1.08 2.49  
Year to date precipitation 51.79 56.69  
Snow  
Snow 0.00 in - - ()
Month to date snowfall 0.0  
Since 1 July snowfall 0.0  
Since 1 September snowfall 0.0  
Snow Depth 0.00 in    
Sea Level Pressure  
Sea Level Pressure 30.02 in    
Wind  
Wind Speed 6 mph (North)    
Max Wind Speed 14 mph    
Max Gust Speed 17 mph    
Visibility 10 miles    
Events      
T = Trace of Precipitation, MM = Missing Value Source: NWS Daily Summary

Daily Weather History Graph

Daily Weather History Graph

Search for Another Location

Airport:

Trip Planner

Search our weather history database for the weather conditions in past years. The results will help you decide how hot, cold, wet, or windy it might be!

Date:

Astronomy

Nov. 14, 2010 Rise Set
Actual Time 6:39 AM EST 5:30 PM EST
Civil Twilight 6:14 AM EST 5:54 PM EST
Nautical Twilight 5:46 AM EST 6:22 PM EST
Astronomical Twilight 5:18 AM EST 6:50 PM EST
Moon 1:14 PM EST (11/14) 12:23 AM EST (11/14)
Length of Visible Light 11h 40m
Length of Day
10h 51m
First Quarter, 60% of the Moon is Illuminated
Nov 14
First Quarter
Nov 21
Full
Nov 28
Last Quarter
Dec 5
New
Dec 13
First Quarter

Hourly Weather History & Observations

Time (EST) Temp. Heat Index Dew Point Humidity Pressure Visibility Wind Dir Wind Speed Gust Speed Precip Events Conditions
12:53 AM 64.9 °F - 61.0 °F 87% 30.03 in 10.0 mi NNW 9.2 mph - N/A   Scattered Clouds
1:53 AM 64.9 °F - 61.0 °F 87% 30.03 in 10.0 mi NNW 8.1 mph - N/A   Scattered Clouds
2:53 AM 64.0 °F - 60.1 °F 87% 30.02 in 10.0 mi NNW 8.1 mph - N/A   Scattered Clouds
3:53 AM 64.0 °F - 60.1 °F 87% 30.02 in 10.0 mi NNW 8.1 mph - N/A   Partly Cloudy
4:53 AM 64.0 °F - 60.1 °F 87% 30.01 in 10.0 mi NNW 6.9 mph - N/A   Clear
5:53 AM 62.1 °F - 59.0 °F 90% 30.02 in 10.0 mi NW 8.1 mph - N/A   Partly Cloudy
6:53 AM 63.0 °F - 59.0 °F 87% 30.04 in 10.0 mi NNW 4.6 mph - N/A   Mostly Cloudy
7:53 AM 64.9 °F - 60.1 °F 84% 30.05 in 10.0 mi NW 4.6 mph - N/A   Scattered Clouds
8:53 AM 72.0 °F - 61.0 °F 68% 30.06 in 10.0 mi NNW 8.1 mph - N/A   Scattered Clouds
9:53 AM 75.9 °F - 59.0 °F 56% 30.07 in 10.0 mi North 8.1 mph - N/A   Scattered Clouds
10:53 AM 79.0 °F - 55.0 °F 44% 30.06 in 10.0 mi North 6.9 mph - N/A   Scattered Clouds
11:53 AM 78.1 °F - 55.0 °F 45% 30.04 in 10.0 mi NNE 6.9 mph - N/A   Scattered Clouds
12:53 PM 80.1 °F 80.2 °F 55.9 °F 43% 30.01 in 10.0 mi North 8.1 mph - N/A   Scattered Clouds
1:53 PM 78.1 °F - 57.0 °F 48% 30.00 in 10.0 mi NNE 8.1 mph - N/A   Scattered Clouds
2:53 PM 79.0 °F - 55.9 °F 45% 29.99 in 10.0 mi NNE 9.2 mph - N/A   Scattered Clouds
3:53 PM 77.0 °F - 55.0 °F 47% 29.99 in 10.0 mi NNE 8.1 mph - N/A   Scattered Clouds
4:53 PM 75.9 °F - 55.0 °F 48% 29.99 in 10.0 mi NNE 9.2 mph - N/A   Scattered Clouds
5:53 PM 73.9 °F - 57.9 °F 57% 29.99 in 10.0 mi NNE 4.6 mph - N/A   Scattered Clouds
6:53 PM 69.1 °F - 59.0 °F 70% 30.00 in 10.0 mi NNW 4.6 mph - N/A   Partly Cloudy
7:53 PM 70.0 °F - 60.1 °F 71% 30.01 in 10.0 mi NNW 3.5 mph - N/A   Scattered Clouds
8:53 PM 66.0 °F - 60.1 °F 81% 30.01 in 10.0 mi NW 3.5 mph - N/A   Mostly Cloudy
9:53 PM 68.0 °F - 61.0 °F 78% 30.01 in 10.0 mi Calm Calm - N/A   Mostly Cloudy
10:53 PM 66.0 °F - 60.1 °F 81% 30.01 in 8.0 mi Calm Calm - N/A   Partly Cloudy
11:53 PM 66.0 °F - 61.0 °F 84% 30.01 in 10.0 mi NW 3.5 mph - N/A   Mostly Cloudy